Time,TemperatureF,DewpointF,PressureIn,WindDirection,WindDirectionDegrees,WindSpeedMPH,WindSpeedGustMPH,Humidity,HourlyPrecipIn,Conditions,Clouds,dailyrainin,SoftwareType,DateUTC
2013-01-04 00:00:00,8.5,6.0,29.98,SSW,208,1.0,7.0,90,0.00,,,0.00,weatherlink.com 1.10,2013-01-04 05:00:00,
2013-01-04 00:15:00,9.0,7.0,29.96,SW,229,4.0,6.0,90,0.00,,,0.00,weatherlink.com 1.10,2013-01-04 05:15:00,
2013-01-04 00:30:00,9.6,8.0,29.96,SSW,212,2.0,6.0,91,0.00,,,0.00,weatherlink.com 1.10,2013-01-04 05:30:00,
2013-01-04 00:45:00,9.9,8.0,29.95,West,281,2.0,6.0,90,0.00,,,0.00,weatherlink.com 1.10,2013-01-04 05:45:00,
2013-01-04 01:00:00,10.1,8.0,29.95,SW,227,4.0,6.0,90,0.00,,,0.00,weatherlink.com 1.10,2013-01-04 06:00:00,
2013-01-04 01:15:00,10.0,8.0,29.95,SW,223,4.0,6.0,90,0.00,,,0.00,weatherlink.com 1.10,2013-01-04 06:15:00,
2013-01-04 01:30:00,9.7,7.0,29.94,South,186,1.0,6.0,89,0.00,,,0.00,weatherlink.com 1.10,2013-01-04 06:30:00,
2013-01-04 01:45:00,9.3,7.0,29.94,SSW,206,2.0,9.0,90,0.00,,,0.00,weatherlink.com 1.10,2013-01-04 06:45:00,
2013-01-04 02:00:00,9.3,7.0,29.94,West,275,4.0,7.0,90,0.00,,,0.00,weatherlink.com 1.10,2013-01-04 07:00:00,
2013-01-04 02:15:00,10.0,8.0,29.93,West,267,5.0,10.0,91,0.00,,,0.00,weatherlink.com 1.10,2013-01-04 07:15:00,
2013-01-04 02:30:00,10.5,8.0,29.93,WNW,285,0.0,9.0,91,0.00,,,0.00,weatherlink.com 1.10,2013-01-04 07:30:00,
2013-01-04 02:46:00,11.4,9.0,29.93,WNW,292,1.0,10.0,91,0.00,,,0.00,weatherlink.com 1.10,2013-01-04 07:46:00,
2013-01-04 03:01:00,11.9,10.0,29.93,East,93,1.0,8.0,91,0.00,,,0.00,weatherlink.com 1.10,2013-01-04 08:01:00,
2013-01-04 03:16:00,12.1,10.0,29.93,WSW,249,2.0,8.0,91,0.00,,,0.00,weatherlink.com 1.10,2013-01-04 08:16:00,
2013-01-04 03:31:00,12.1,10.0,29.93,WSW,258,2.0,4.0,91,0.00,,,0.00,weatherlink.com 1.10,2013-01-04 08:31:00,
2013-01-04 03:46:00,12.1,10.0,29.93,NW,304,2.0,4.0,91,0.00,,,0.00,weatherlink.com 1.10,2013-01-04 08:46:00,
2013-01-04 04:01:00,12.1,10.0,29.93,SSE,163,0.0,7.0,91,0.00,,,0.00,weatherlink.com 1.10,2013-01-04 09:01:00,
2013-01-04 04:16:00,12.0,10.0,29.92,SSE,167,2.0,6.0,91,0.00,,,0.00,weatherlink.com 1.10,2013-01-04 09:16:00,
2013-01-04 04:31:00,11.8,10.0,29.91,SE,144,0.0,7.0,91,0.00,,,0.00,weatherlink.com 1.10,2013-01-04 09:31:00,
2013-01-04 04:46:00,11.8,10.0,29.92,West,266,1.0,10.0,91,0.00,,,0.00,weatherlink.com 1.10,2013-01-04 09:46:00,
2013-01-04 05:01:00,11.9,10.0,29.91,SE,138,2.0,11.0,91,0.00,,,0.00,weatherlink.com 1.10,2013-01-04 10:01:00,
2013-01-04 05:16:00,12.3,10.0,29.91,South,179,1.0,3.0,91,0.00,,,0.00,weatherlink.com 1.10,2013-01-04 10:16:00,
2013-01-04 05:31:00,12.5,10.0,29.90,SE,142,3.0,4.0,91,0.00,,,0.00,weatherlink.com 1.10,2013-01-04 10:31:00,
2013-01-04 05:46:00,12.6,11.0,29.91,WSW,248,1.0,5.0,92,0.00,,,0.00,weatherlink.com 1.10,2013-01-04 10:46:00,
2013-01-04 06:01:00,12.8,11.0,29.91,WSW,249,0.0,2.0,92,0.00,,,0.00,weatherlink.com 1.10,2013-01-04 11:01:00,
2013-01-04 06:16:00,13.1,11.0,29.91,SE,136,1.0,5.0,92,0.00,,,0.00,weatherlink.com 1.10,2013-01-04 11:16:00,
2013-01-04 06:31:00,13.3,11.0,29.91,SE,136,0.0,5.0,92,0.00,,,0.00,weatherlink.com 1.10,2013-01-04 11:31:00,
2013-01-04 06:46:00,13.5,12.0,29.90,South,173,2.0,9.0,92,0.00,,,0.00,weatherlink.com 1.10,2013-01-04 11:46:00,
2013-01-04 07:01:00,13.7,12.0,29.89,WSW,256,0.0,4.0,92,0.00,,,0.00,weatherlink.com 1.10,2013-01-04 12:01:00,
2013-01-04 07:16:00,13.9,12.0,29.88,SW,224,0.0,5.0,92,0.00,,,0.00,weatherlink.com 1.10,2013-01-04 12:16:00,
2013-01-04 07:31:00,14.3,12.0,29.88,SW,223,0.0,4.0,92,0.00,,,0.00,weatherlink.com 1.10,2013-01-04 12:31:00,
2013-01-04 07:46:00,14.7,13.0,29.87,SSE,155,3.0,6.0,92,0.00,,,0.00,weatherlink.com 1.10,2013-01-04 12:46:00,
2013-01-04 08:01:00,15.0,13.0,29.86,WSW,255,0.0,8.0,92,0.00,,,0.00,weatherlink.com 1.10,2013-01-04 13:01:00,
2013-01-04 08:16:00,15.2,13.0,29.85,ESE,120,1.0,6.0,92,0.00,,,0.00,weatherlink.com 1.10,2013-01-04 13:16:00,
2013-01-04 08:32:00,15.4,14.0,29.85,SSE,158,2.0,4.0,92,0.00,,,0.00,weatherlink.com 1.10,2013-01-04 13:32:00,
2013-01-04 08:47:00,16.2,14.0,29.86,ESE,119,1.0,4.0,92,0.00,,,0.00,weatherlink.com 1.10,2013-01-04 13:47:00,
2013-01-04 09:02:00,17.0,15.0,29.86,SSE,162,3.0,7.0,93,0.00,,,0.00,weatherlink.com 1.10,2013-01-04 14:02:00,
2013-01-04 09:17:00,17.4,16.0,29.84,SW,226,1.0,7.0,92,0.00,,,0.00,weatherlink.com 1.10,2013-01-04 14:17:00,
2013-01-04 09:32:00,17.7,16.0,29.84,NNW,348,0.0,7.0,92,0.00,,,0.00,weatherlink.com 1.10,2013-01-04 14:32:00,
2013-01-04 09:47:00,18.4,17.0,29.84,WNW,287,1.0,5.0,92,0.00,,,0.00,weatherlink.com 1.10,2013-01-04 14:47:00,
2013-01-04 10:02:00,18.8,17.0,29.83,West,271,0.0,10.0,93,0.00,,,0.00,weatherlink.com 1.10,2013-01-04 15:02:00,
2013-01-04 10:17:00,19.4,18.0,29.82,NNW,341,2.0,9.0,93,0.00,,,0.00,weatherlink.com 1.10,2013-01-04 15:17:00,
2013-01-04 10:32:00,20.0,18.0,29.81,NE,52,0.0,5.0,93,0.00,,,0.00,weatherlink.com 1.10,2013-01-04 15:32:00,
2013-01-04 10:47:00,20.4,19.0,29.80,West,278,0.0,10.0,93,0.00,,,0.00,weatherlink.com 1.10,2013-01-04 15:47:00,
2013-01-04 11:02:00,20.8,19.0,29.78,WSW,251,1.0,9.0,93,0.00,,,0.00,weatherlink.com 1.10,2013-01-04 16:02:00,
2013-01-04 11:17:00,21.2,20.0,29.78,South,183,3.0,5.0,93,0.00,,,0.00,weatherlink.com 1.10,2013-01-04 16:17:00,
2013-01-04 11:32:00,21.5,20.0,29.77,North,355,3.0,10.0,93,0.00,,,0.00,weatherlink.com 1.10,2013-01-04 16:32:00,
2013-01-04 11:48:00,21.6,20.0,29.76,NE,39,2.0,7.0,93,0.00,,,0.00,weatherlink.com 1.10,2013-01-04 16:48:00,
2013-01-04 12:03:00,21.6,20.0,29.76,NNE,13,1.0,11.0,93,0.00,,,0.00,weatherlink.com 1.10,2013-01-04 17:03:00,
2013-01-04 12:18:00,21.7,20.0,29.75,NNW,338,3.0,10.0,93,0.00,,,0.00,weatherlink.com 1.10,2013-01-04 17:18:00,
2013-01-04 12:33:00,22.2,21.0,29.75,SE,138,1.0,7.0,93,0.00,,,0.00,weatherlink.com 1.10,2013-01-04 17:33:00,
2013-01-04 12:48:00,22.7,21.0,29.74,ENE,59,0.0,10.0,93,0.00,,,0.00,weatherlink.com 1.10,2013-01-04 17:48:00,
2013-01-04 13:03:00,23.1,21.0,29.74,NNE,26,2.0,11.0,93,0.00,,,0.00,weatherlink.com 1.10,2013-01-04 18:03:00,
2013-01-04 13:18:00,23.1,21.0,29.74,WNW,287,5.0,13.0,93,0.00,,,0.00,weatherlink.com 1.10,2013-01-04 18:18:00,
2013-01-04 13:33:00,22.9,21.0,29.74,NW,306,2.0,13.0,93,0.00,,,0.00,weatherlink.com 1.10,2013-01-04 18:33:00,
2013-01-04 13:48:00,23.3,22.0,29.73,WSW,237,15.0,15.0,93,0.00,,,0.00,weatherlink.com 1.10,2013-01-04 18:48:00,
2013-01-04 14:03:00,23.3,22.0,29.74,NNE,26,0.0,8.0,94,0.00,,,0.00,weatherlink.com 1.10,2013-01-04 19:03:00,
2013-01-04 14:18:00,23.1,21.0,29.74,NNW,329,3.0,8.0,93,0.00,,,0.00,weatherlink.com 1.10,2013-01-04 19:18:00,
2013-01-04 14:33:00,22.9,22.0,29.74,SW,221,1.0,6.0,94,0.00,,,0.00,weatherlink.com 1.10,2013-01-04 19:33:00,
2013-01-04 14:48:00,22.9,22.0,29.75,North,360,0.0,13.0,94,0.00,,,0.00,weatherlink.com 1.10,2013-01-04 19:48:00,
2013-01-04 15:03:00,23.0,22.0,29.75,NNW,332,3.0,8.0,94,0.00,,,0.00,weatherlink.com 1.10,2013-01-04 20:03:00,
2013-01-04 15:18:00,23.0,22.0,29.74,North,11,1.0,11.0,94,0.00,,,0.00,weatherlink.com 1.10,2013-01-04 20:18:00,
2013-01-04 15:33:00,23.1,22.0,29.75,SW,225,0.0,7.0,94,0.00,,,0.00,weatherlink.com 1.10,2013-01-04 20:33:00,
2013-01-04 15:48:00,23.2,22.0,29.75,NW,312,0.0,6.0,94,0.00,,,0.00,weatherlink.com 1.10,2013-01-04 20:48:00,
2013-01-04 16:03:00,23.2,22.0,29.75,NNW,332,3.0,8.0,94,0.00,,,0.00,weatherlink.com 1.10,2013-01-04 21:03:00,
2013-01-04 16:18:00,23.3,22.0,29.75,WNW,298,1.0,6.0,94,0.00,,,0.00,weatherlink.com 1.10,2013-01-04 21:18:00,
2013-01-04 16:33:00,23.4,22.0,29.75,North,355,0.0,6.0,95,0.00,,,0.00,weatherlink.com 1.10,2013-01-04 21:33:00,
2013-01-04 16:48:00,23.5,22.0,29.75,NE,35,0.0,8.0,95,0.00,,,0.00,weatherlink.com 1.10,2013-01-04 21:48:00,
2013-01-04 17:03:00,23.6,22.0,29.75,NW,309,3.0,10.0,95,0.00,,,0.00,weatherlink.com 1.10,2013-01-04 22:03:00,
2013-01-04 17:18:00,23.7,23.0,29.75,West,272,0.0,7.0,95,0.00,,,0.00,weatherlink.com 1.10,2013-01-04 22:18:00,
2013-01-04 17:33:00,23.8,23.0,29.75,North,355,3.0,9.0,95,0.00,,,0.00,weatherlink.com 1.10,2013-01-04 22:33:00,
2013-01-04 17:48:00,24.0,23.0,29.75,WNW,300,1.0,7.0,95,0.00,,,0.00,weatherlink.com 1.10,2013-01-04 22:48:00,
2013-01-04 18:03:00,24.1,23.0,29.75,NNW,346,7.0,10.0,95,0.00,,,0.00,weatherlink.com 1.10,2013-01-04 23:03:00,
2013-01-04 18:18:00,24.2,23.0,29.75,North,350,1.0,11.0,95,0.00,,,0.00,weatherlink.com 1.10,2013-01-04 23:18:00,
2013-01-04 18:33:00,24.3,23.0,29.75,North,355,4.0,12.0,95,0.00,,,0.00,weatherlink.com 1.10,2013-01-04 23:33:00,
2013-01-04 18:48:00,24.4,23.0,29.75,NNE,24,3.0,13.0,95,0.00,,,0.00,weatherlink.com 1.10,2013-01-04 23:48:00,
2013-01-04 19:03:00,24.4,23.0,29.75,NNW,338,9.0,11.0,95,0.00,,,0.00,weatherlink.com 1.10,2013-01-05 00:03:00,
2013-01-04 19:18:00,24.4,23.0,29.75,NNW,348,3.0,11.0,95,0.00,,,0.00,weatherlink.com 1.10,2013-01-05 00:18:00,
2013-01-04 19:33:00,24.4,23.0,29.75,NNE,15,2.0,13.0,95,0.00,,,0.00,weatherlink.com 1.10,2013-01-05 00:33:00,
2013-01-04 19:48:00,24.4,23.0,29.75,NNE,13,2.0,13.0,95,0.00,,,0.00,weatherlink.com 1.10,2013-01-05 00:48:00,
2013-01-04 20:03:00,24.3,23.0,29.74,NNW,327,2.0,15.0,95,0.00,,,0.00,weatherlink.com 1.10,2013-01-05 01:03:00,
2013-01-04 20:18:00,24.3,23.0,29.74,North,9,2.0,10.0,95,0.00,,,0.00,weatherlink.com 1.10,2013-01-05 01:18:00,
2013-01-04 20:33:00,24.3,23.0,29.74,NNW,345,9.0,9.0,95,0.00,,,0.00,weatherlink.com 1.10,2013-01-05 01:33:00,
2013-01-04 20:48:00,24.3,23.0,29.74,North,11,5.0,9.0,95,0.00,,,0.00,weatherlink.com 1.10,2013-01-05 01:48:00,
2013-01-04 21:03:00,24.3,23.0,29.74,North,351,5.0,11.0,95,0.00,,,0.00,weatherlink.com 1.10,2013-01-05 02:03:00,
2013-01-04 21:18:00,24.2,23.0,29.74,NE,44,2.0,13.0,95,0.00,,,0.00,weatherlink.com 1.10,2013-01-05 02:18:00,
2013-01-04 21:33:00,24.2,23.0,29.73,NNW,337,0.0,4.0,95,0.00,,,0.00,weatherlink.com 1.10,2013-01-05 02:33:00,
2013-01-04 21:48:00,24.2,23.0,29.73,West,277,1.0,9.0,95,0.00,,,0.00,weatherlink.com 1.10,2013-01-05 02:48:00,
2013-01-04 22:03:00,24.1,23.0,29.73,NNE,30,0.0,8.0,95,0.00,,,0.00,weatherlink.com 1.10,2013-01-05 03:03:00,
2013-01-04 22:18:00,24.1,23.0,29.73,NW,321,0.0,7.0,95,0.00,,,0.00,weatherlink.com 1.10,2013-01-05 03:18:00,
2013-01-04 22:33:00,24.0,23.0,29.73,NW,323,6.0,7.0,95,0.00,,,0.00,weatherlink.com 1.10,2013-01-05 03:33:00,
2013-01-04 22:48:00,24.0,23.0,29.73,NW,311,1.0,8.0,95,0.00,,,0.00,weatherlink.com 1.10,2013-01-05 03:48:00,
2013-01-04 23:03:00,24.0,23.0,29.73,West,272,0.0,11.0,95,0.00,,,0.00,weatherlink.com 1.10,2013-01-05 04:03:00,
2013-01-04 23:18:00,24.0,23.0,29.72,North,350,2.0,11.0,95,0.00,,,0.00,weatherlink.com 1.10,2013-01-05 04:18:00,
2013-01-04 23:34:00,23.9,23.0,29.72,NNE,13,1.0,11.0,94,0.00,,,0.00,weatherlink.com 1.10,2013-01-05 04:34:00,
2013-01-04 23:49:00,23.9,23.0,29.72,North,351,4.0,11.0,94,0.00,,,0.00,weatherlink.com 1.10,2013-01-05 04:49:00,